Location: Newark
(7.0858°N, 171.3717°E)
Time: 08:59:13
(UTC+00:00)

S-56A Canister/Altair - Pass Details

Date: 26 November 2020
Orbit: 633 x 2499 km, 38.9° (Epoch: 27 January)

Event Time Altitude Azimuth Distance (km) Brightness Sun altitude
Rises 15:30:53 0° 330° (NNW) 2,966 - -42.3°
Reaches altitude 10° 15:33:37 10° 345° (NNW) 2,003 - -41.7°
Maximum altitude 15:37:09 23° 39° (NE) 1,362 - -40.9°
Exits shadow 15:40:22 12° 88° (E) 1,973 10.2 -40.1°
Drops below altitude 10° 15:40:53 10° 92° (E) 2,140 10.4 -40.0°
Sets 15:43:55 0° 106° (ESE) 3,226 11.6 -39.3°
